GFSFLT1_prec_pwat_159.txt.gz
Precipitable_Water
1.08 1.12 1.27 1.54 1.57 1.63 1.54 1.58 1.62 1.68 1.60 1.48 1.47 1.43 1.43 1.45 1.54 1.46 1.67 1.53 1.70 1.68 1.61 1.70 1.74 1.76 1.73 1.62 1.69 1.74 1.80 1.72 1.64
0.95 1.02 1.47 1.35 1.61 1.61 1.60 1.70 1.99 1.84 1.65 1.57 1.47 1.41 1.44 1.43 1.58 1.56 1.50 1.65 1.71 1.78 1.69 1.76 1.75 1.86 1.80 1.74 1.74 1.66 1.70 1.75 1.78
1.05 1.17 1.17 1.24 1.38 1.55 1.49 1.61 1.66 1.72 1.89 1.58 1.54 1.45 1.49 1.49 1.51 1.57 1.54 1.59 1.64 1.65 1.63 1.84 1.79 1.93 1.90 1.76 1.85 1.71 1.70 1.68 1.75
0.93 1.04 1.11 1.12 1.17 1.30 1.45 1.47 1.71 1.78 1.84 1.98 1.66 1.47 1.44 1.51 1.55 1.55 1.57 1.65 1.63 1.63 1.63 1.71 1.68 1.58 1.61 1.67 1.72 1.67 1.64 1.62 1.55
1.02 1.05 1.14 1.16 1.22 1.24 1.31 1.38 1.50 1.73 1.66 1.86 2.04 1.79 1.68 1.63 1.63 1.56 1.56 1.60 1.69 1.66 1.81 1.76 1.57 1.57 1.59 1.49 1.64 1.60 1.58 1.52 1.64
0.95 0.92 0.95 1.17 1.34 1.38 1.41 1.45 1.45 1.60 1.60 1.96 1.80 1.81 1.72 1.69 1.70 1.65 1.58 1.55 1.58 1.65 1.62 1.53 1.53 1.56 1.40 1.44 1.52 1.50 1.56 1.78 1.73
0.90 0.92 1.00 1.06 1.13 1.15 1.31 1.42 1.53 1.66 1.75 1.86 1.64 1.78 1.85 1.63 1.83 1.70 1.61 1.62 1.52 1.45 1.46 1.52 1.52 1.56 1.47 1.48 1.52 1.60 1.61 1.66 1.74
0.94 0.90 0.94 0.97 0.89 0.89 1.03 1.22 1.41 1.59 1.62 1.81 1.82 1.76 1.80 1.95 1.71 1.90 1.83 1.71 1.63 1.60 1.55 1.49 1.49 1.47 1.54 1.55 1.57 1.58 1.55 1.57 1.59
0.92 0.90 0.85 0.95 0.90 0.91 0.86 0.86 0.90 1.35 1.51 1.66 1.82 1.87 1.81 1.65 1.81 1.82 1.76 1.85 1.72 1.78 1.57 1.60 1.57 1.49 1.47 1.47 1.50 1.55 1.61 1.58 1.57
0.90 0.86 0.80 0.76 0.90 0.97 0.96 0.94 0.92 1.03 1.32 1.50 1.63 1.78 2.12 2.13 2.04 1.88 1.54 1.64 1.67 1.92 1.75 1.73 1.74 1.68 1.63 1.47 1.42 1.48 1.52 1.60 1.61
0.92 0.88 0.82 0.77 0.89 0.97 1.04 1.03 1.01 1.06 1.19 1.25 1.38 1.50 1.70 1.94 2.11 2.04 1.99 1.69 1.62 1.93 1.91 1.77 1.77 1.79 1.78 1.77 1.70 1.62 1.55 1.53 1.62
0.88 0.84 0.86 0.84 0.96 1.04 1.03 1.01 1.11 1.02 1.09 1.19 1.29 1.43 1.47 1.54 1.73 1.91 2.07 2.10 2.08 2.10 1.97 1.91 1.90 1.87 1.84 1.84 1.88 1.87 1.85 1.82 1.73
0.91 0.89 0.92 0.89 0.89 0.93 1.04 1.01 0.93 0.90 0.90 1.02 1.15 1.33 1.48 1.57 1.61 1.58 1.69 1.97 2.10 2.09 2.03 2.02 2.05 2.03 2.13 2.12 2.01 2.02 2.03 2.04 1.97
0.99 1.06 1.05 1.00 0.96 1.00 1.02 0.98 0.98 0.81 0.75 0.81 1.05 1.23 1.42 1.53 1.56 1.50 1.59 1.71 1.86 2.05 2.03 1.92 1.98 2.02 2.07 2.15 2.18 2.13 2.13 2.13 2.11
1.01 1.05 1.05 1.01 0.98 0.98 0.97 0.85 0.76 0.71 0.73 0.93 1.07 1.17 1.24 1.36 1.45 1.47 1.51 1.48 1.50 1.59 1.73 1.80 1.88 1.97 2.02 2.10 2.14 2.10 2.14 2.16 2.19
1.07 1.03 0.94 1.00 1.00 0.99 0.93 0.91 0.81 0.72 0.79 0.86 0.98 1.11 1.16 1.25 1.35 1.37 1.43 1.44 1.45 1.43 1.47 1.47 1.57 1.73 1.79 1.89 2.03 2.02 2.06 2.08 2.13
1.01 0.93 0.90 0.94 0.92 0.89 0.93 0.98 0.88 0.84 0.81 0.86 0.91 0.97 1.11 1.17 1.24 1.23 1.30 1.41 1.43 1.39 1.40 1.43 1.47 1.50 1.53 1.61 1.72 1.86 1.92 1.95 2.02
0.95 0.92 0.91 0.91 0.90 0.95 0.99 1.00 0.95 0.94 0.94 0.88 0.83 0.94 1.07 1.05 1.17 1.16 1.11 1.17 1.22 1.23 1.30 1.35 1.35 1.43 1.51 1.53 1.56 1.66 1.77 1.82 1.82
0.91 0.93 0.98 0.97 0.99 1.03 1.06 1.02 0.99 1.01 1.06 1.02 0.92 0.90 1.02 1.11 1.08 1.21 1.15 1.12 1.16 1.27 1.31 1.35 1.38 1.44 1.48 1.53 1.60 1.65 1.70 1.81 1.86
1.01 1.04 1.03 1.02 1.05 1.12 1.11 0.95 1.00 1.07 1.03 1.05 1.02 0.96 1.03 1.10 1.13 1.20 1.26 1.21 1.19 1.14 1.25 1.37 1.41 1.41 1.42 1.45 1.49 1.56 1.61 1.65 1.69

GFSFLT1_prec_pwat_162.txt.gz
Precipitable_Water
1.04 1.13 1.23 1.30 1.48 1.59 1.62 1.62 1.63 1.55 1.42 1.51 1.56 1.55 1.43 1.47 1.60 1.54 1.57 1.58 1.61 1.66 1.75 1.61 1.72 1.66 1.64 1.63 1.65 1.75 1.82 1.77 1.68
0.90 0.99 1.08 1.25 1.45 1.55 1.66 1.63 1.65 1.53 1.54 1.64 1.61 1.58 1.55 1.46 1.52 1.60 1.61 1.73 1.68 1.68 1.77 1.67 1.76 1.75 1.80 1.77 1.71 1.72 1.69 1.71 1.66
0.94 1.07 1.11 1.18 1.18 1.44 1.62 1.67 1.64 1.60 1.51 1.59 1.65 1.70 1.63 1.54 1.44 1.54 1.62 1.66 1.70 1.73 1.84 1.73 1.94 1.75 1.88 1.86 1.77 1.77 1.67 1.68 1.76
1.00 1.08 1.12 1.17 1.14 1.27 1.46 1.59 1.54 1.65 1.80 1.73 1.76 1.83 1.73 1.60 1.55 1.48 1.63 1.59 1.55 1.73 1.79 1.78 1.80 1.86 1.89 1.87 1.75 1.75 1.69 1.69 1.59
1.13 1.19 1.19 1.16 1.12 1.24 1.27 1.39 1.55 1.59 1.65 1.71 1.81 1.88 1.79 1.63 1.61 1.62 1.49 1.53 1.57 1.67 1.71 1.75 1.81 1.81 1.81 1.71 1.64 1.73 1.70 1.67 1.57
1.13 1.16 1.08 1.04 1.11 1.22 1.32 1.41 1.49 1.56 1.59 1.65 1.63 1.59 1.74 1.71 1.59 1.57 1.59 1.46 1.53 1.69 1.69 1.74 1.83 1.78 1.63 1.62 1.49 1.58 1.62 1.59 1.61
1.03 1.00 0.94 1.03 1.06 1.16 1.25 1.27 1.38 1.47 1.60 1.69 1.62 1.76 1.78 1.81 1.71 1.61 1.63 1.63 1.50 1.54 1.66 1.63 1.64 1.59 1.58 1.48 1.40 1.55 1.63 1.60 1.67
0.91 0.87 0.93 0.95 0.94 0.98 1.06 1.07 1.16 1.31 1.49 1.55 1.65 1.79 1.78 1.74 1.81 1.82 1.68 1.70 1.67 1.56 1.55 1.54 1.51 1.53 1.55 1.55 1.52 1.55 1.60 1.58 1.64
0.89 0.89 0.96 0.88 0.84 0.83 0.87 0.92 0.93 1.02 1.16 1.34 1.53 1.68 1.83 1.92 1.86 1.77 1.68 1.67 1.65 1.63 1.55 1.57 1.59 1.50 1.52 1.53 1.55 1.59 1.60 1.56 1.50
0.96 1.00 1.02 0.87 0.87 0.87 0.97 0.99 1.02 1.04 1.14 1.32 1.44 1.54 1.73 1.91 1.80 1.73 1.57 1.71 1.77 1.70 1.63 1.65 1.64 1.62 1.59 1.58 1.53 1.54 1.52 1.56 1.58
1.03 1.03 1.10 0.91 0.93 1.00 1.01 0.98 1.05 1.08 1.11 1.20 1.27 1.39 1.56 1.69 1.73 1.80 1.88 1.90 1.76 1.73 1.77 1.73 1.65 1.66 1.73 1.69 1.65 1.64 1.54 1.48 1.49
1.03 1.07 1.08 0.94 0.97 1.06 1.04 1.01 1.06 1.03 1.08 1.16 1.24 1.30 1.39 1.49 1.66 1.83 1.98 1.87 1.86 1.84 1.69 1.69 1.85 1.85 1.84 1.86 1.79 1.86 1.83 1.73 1.61
1.05 1.11 1.09 1.00 0.95 1.02 1.01 0.98 1.03 0.97 0.89 0.93 1.04 1.22 1.40 1.56 1.65 1.60 1.69 1.94 2.07 2.08 1.96 2.06 2.07 2.05 2.07 2.00 1.90 1.96 1.98 2.00 1.96
1.10 1.11 1.11 1.13 0.93 0.93 1.04 1.05 0.97 0.82 0.77 0.76 0.95 1.07 1.27 1.41 1.48 1.51 1.52 1.57 1.68 1.90 2.09 2.19 2.07 2.11 2.10 2.14 2.13 2.10 2.10 2.09 2.04
1.07 1.09 1.11 1.07 0.98 1.02 0.94 0.92 0.86 0.77 0.74 0.88 0.97 1.05 1.09 1.21 1.32 1.42 1.45 1.44 1.46 1.53 1.62 1.72 1.88 1.99 2.02 2.06 2.07 2.10 2.07 2.05 2.15
1.10 1.13 1.14 1.11 0.98 1.01 0.96 0.88 0.82 0.77 0.79 0.83 0.86 0.95 0.99 1.10 1.20 1.25 1.29 1.30 1.35 1.38 1.41 1.38 1.39 1.45 1.54 1.75 1.88 1.91 2.00 2.04 2.09
1.08 1.13 1.13 1.03 0.99 0.97 0.95 1.00 0.93 0.85 0.86 0.82 0.79 0.84 0.93 0.96 1.01 1.10 1.16 1.21 1.25 1.30 1.33 1.34 1.35 1.36 1.36 1.43 1.52 1.63 1.75 1.85 1.97
1.14 1.09 0.99 0.98 0.94 0.95 1.01 1.11 1.08 1.00 0.93 0.93 0.88 0.86 0.91 0.91 0.93 1.05 0.98 1.06 1.08 1.12 1.17 1.19 1.19 1.23 1.27 1.28 1.31 1.46 1.62 1.68 1.72
1.09 0.93 0.93 0.93 0.92 1.00 1.09 1.18 1.14 0.93 1.01 0.97 0.91 0.89 0.93 0.97 0.95 1.01 1.08 1.00 1.06 1.18 1.18 1.22 1.24 1.26 1.26 1.28 1.33 1.38 1.44 1.55 1.68
0.97 0.92 0.96 0.98 0.99 1.06 1.16 1.21 1.12 1.00 1.02 0.99 0.98 0.94 0.98 1.08 1.10 1.07 1.11 1.13 1.09 1.08 1.18 1.25 1.26 1.29 1.28 1.29 1.29 1.32 1.39 1.46 1.54

GFSFLT1_prec_pwat_165.txt.gz
Precipitable_Water
1.02 1.17 1.22 1.31 1.41 1.55 1.59 1.65 1.64 1.67 1.62 1.54 1.48 1.49 1.46 1.47 1.44 1.40 1.48 1.59 1.60 1.51 1.60 1.66 1.66 1.63 1.63 1.63 1.67 1.69 1.73 1.74 1.68
0.87 1.00 1.12 1.22 1.41 1.52 1.58 1.56 1.65 1.69 1.63 1.55 1.50 1.50 1.53 1.52 1.51 1.42 1.46 1.52 1.53 1.59 1.66 1.78 1.79 1.69 1.65 1.63 1.68 1.68 1.80 1.80 1.78
0.79 0.90 1.05 1.18 1.30 1.40 1.50 1.52 1.68 1.72 1.72 1.55 1.58 1.57 1.59 1.56 1.56 1.50 1.47 1.54 1.55 1.62 1.66 1.70 1.77 1.71 1.71 1.74 1.80 1.76 1.74 1.59 1.70
0.89 0.95 1.03 1.08 1.12 1.18 1.29 1.57 1.64 1.68 1.69 1.60 1.54 1.63 1.63 1.56 1.54 1.58 1.56 1.54 1.54 1.55 1.63 1.67 1.72 1.75 1.79 1.77 1.91 1.89 1.76 1.66 1.66
0.97 1.01 1.06 1.11 1.16 1.16 1.19 1.34 1.51 1.50 1.69 1.68 1.63 1.72 1.69 1.70 1.61 1.54 1.46 1.48 1.56 1.60 1.55 1.61 1.71 1.71 1.73 1.84 1.87 1.83 1.75 1.68 1.67
1.06 1.05 1.11 1.09 1.00 1.05 1.16 1.25 1.39 1.44 1.50 1.59 1.71 1.80 1.73 1.77 1.73 1.56 1.43 1.45 1.52 1.61 1.60 1.52 1.57 1.68 1.68 1.74 1.82 1.84 1.69 1.74 1.75
1.12 1.07 0.96 0.88 0.95 1.01 1.10 1.14 1.18 1.31 1.47 1.55 1.58 1.67 1.68 1.64 1.65 1.68 1.54 1.52 1.53 1.55 1.62 1.62 1.53 1.61 1.75 1.74 1.74 1.62 1.58 1.59 1.63
1.05 0.95 0.82 0.85 0.89 0.91 0.95 1.01 1.02 1.16 1.39 1.50 1.58 1.62 1.62 1.68 1.78 1.73 1.64 1.56 1.59 1.58 1.58 1.67 1.63 1.63 1.70 1.67 1.62 1.57 1.50 1.51 1.60
1.05 0.95 0.90 0.89 0.87 0.84 0.92 0.92 0.93 0.98 1.06 1.25 1.39 1.40 1.50 1.77 1.81 1.74 1.64 1.66 1.61 1.63 1.59 1.61 1.61 1.56 1.53 1.50 1.55 1.55 1.53 1.54 1.53
1.03 1.03 0.97 0.83 0.81 0.78 0.82 0.90 0.93 0.86 0.94 1.07 1.16 1.28 1.43 1.62 1.81 1.85 1.78 1.75 1.74 1.68 1.62 1.65 1.57 1.53 1.58 1.51 1.53 1.59 1.61 1.59 1.60
1.04 1.06 1.02 0.97 0.86 0.87 0.93 0.97 0.98 1.06 1.10 1.13 1.17 1.23 1.36 1.51 1.66 1.73 1.84 1.81 1.72 1.74 1.71 1.62 1.60 1.60 1.62 1.64 1.62 1.62 1.63 1.61 1.59
1.04 1.06 1.10 1.12 0.95 0.94 0.97 0.90 0.98 1.00 1.02 1.03 1.09 1.14 1.24 1.40 1.58 1.64 1.71 1.78 1.81 1.74 1.68 1.74 1.70 1.69 1.62 1.62 1.69 1.71 1.76 1.69 1.64
1.08 1.15 1.18 1.14 1.04 1.00 0.96 0.97 1.06 1.04 1.01 1.01 0.99 1.10 1.24 1.41 1.52 1.55 1.64 1.77 1.86 1.88 1.83 1.79 1.85 1.82 1.85 1.79 1.80 1.88 1.90 1.86 1.82
1.16 1.23 1.27 1.25 1.13 0.96 0.94 1.02 1.10 1.02 0.95 0.87 0.96 1.08 1.20 1.29 1.37 1.47 1.49 1.51 1.62 1.78 1.86 1.91 1.97 1.98 1.90 1.87 1.90 1.93 2.00 2.02 1.95
1.17 1.23 1.32 1.31 1.14 0.92 0.98 0.99 0.95 0.88 0.78 0.90 0.97 1.00 1.02 1.06 1.18 1.26 1.36 1.39 1.42 1.48 1.53 1.61 1.77 1.92 1.85 1.85 1.97 1.96 2.07 2.05 2.01
1.18 1.22 1.32 1.27 1.11 0.92 0.94 0.94 0.87 0.73 0.79 0.85 0.88 0.92 0.93 1.01 1.08 1.14 1.18 1.20 1.26 1.31 1.38 1.36 1.36 1.43 1.52 1.73 1.95 1.94 2.01 2.04 2.04
1.18 1.24 1.28 1.21 1.12 0.97 0.92 0.92 0.91 0.88 0.88 0.87 0.79 0.79 0.85 0.92 0.90 1.00 1.06 1.10 1.15 1.16 1.21 1.28 1.32 1.35 1.37 1.40 1.44 1.47 1.55 1.63 1.77
1.20 1.26 1.26 1.21 1.05 0.97 0.90 0.98 1.03 1.09 1.02 0.94 0.83 0.84 0.88 0.85 0.84 0.92 0.91 0.96 0.98 1.03 1.09 1.12 1.13 1.18 1.22 1.21 1.22 1.30 1.37 1.42 1.49
1.27 1.35 1.29 1.14 1.06 0.94 0.97 1.06 1.09 1.13 1.06 0.97 0.91 0.88 0.89 0.89 0.92 0.97 0.98 0.94 0.95 1.08 1.11 1.15 1.18 1.18 1.17 1.19 1.19 1.22 1.25 1.30 1.38
1.40 1.40 1.24 1.08 1.00 1.02 1.07 1.11 1.13 1.16 1.08 1.01 0.96 0.91 0.91 0.95 0.94 0.98 0.98 1.02 1.01 0.96 1.12 1.19 1.21 1.21 1.22 1.21 1.19 1.20 1.17 1.23 1.31

GFSFLT1_prec_pwat_168.txt.gz
Precipitable_Water
0.95 1.08 1.23 1.26 1.33 1.41 1.47 1.51 1.53 1.60 1.61 1.45 1.45 1.51 1.49 1.49 1.46 1.46 1.38 1.43 1.50 1.57 1.57 1.55 1.60 1.57 1.61 1.61 1.53 1.58 1.69 1.69 1.70
0.80 1.00 1.12 1.18 1.28 1.39 1.49 1.55 1.59 1.64 1.69 1.65 1.55 1.44 1.50 1.48 1.49 1.47 1.45 1.44 1.54 1.57 1.55 1.50 1.61 1.66 1.54 1.58 1.55 1.58 1.66 1.65 1.74
0.79 0.88 0.99 1.09 1.22 1.34 1.46 1.56 1.64 1.68 1.70 1.68 1.56 1.50 1.48 1.46 1.49 1.51 1.49 1.48 1.50 1.47 1.44 1.52 1.55 1.60 1.64 1.59 1.63 1.70 1.70 1.64 1.68
0.82 0.85 0.89 1.01 1.12 1.23 1.38 1.46 1.64 1.64 1.71 1.74 1.65 1.59 1.54 1.51 1.50 1.52 1.54 1.51 1.46 1.47 1.55 1.56 1.56 1.61 1.64 1.63 1.65 1.73 1.78 1.76 1.66
0.95 0.93 0.98 1.05 1.11 1.16 1.21 1.27 1.51 1.56 1.57 1.67 1.65 1.62 1.65 1.59 1.64 1.60 1.53 1.52 1.53 1.56 1.56 1.66 1.61 1.61 1.62 1.61 1.73 1.74 1.85 1.83 1.73
0.98 0.95 0.96 1.03 1.06 1.08 1.12 1.17 1.31 1.40 1.51 1.62 1.68 1.70 1.68 1.71 1.66 1.69 1.66 1.64 1.57 1.53 1.53 1.56 1.63 1.61 1.59 1.61 1.68 1.73 1.76 1.79 1.72
0.98 0.96 0.97 1.02 0.92 0.92 1.02 1.13 1.22 1.36 1.45 1.52 1.59 1.69 1.73 1.74 1.76 1.76 1.78 1.77 1.72 1.57 1.55 1.54 1.57 1.58 1.56 1.60 1.67 1.74 1.80 1.82 1.70
0.95 0.97 0.93 0.92 0.87 0.91 0.98 1.03 1.12 1.20 1.24 1.39 1.52 1.56 1.61 1.67 1.76 1.75 1.77 1.68 1.68 1.68 1.61 1.60 1.58 1.58 1.56 1.53 1.68 1.74 1.71 1.67 1.56
0.91 1.01 0.92 0.86 0.91 0.92 0.86 0.90 0.96 0.98 0.99 1.15 1.45 1.50 1.52 1.65 1.70 1.69 1.72 1.73 1.68 1.65 1.66 1.65 1.64 1.59 1.58 1.51 1.64 1.75 1.67 1.63 1.51
0.93 1.04 0.95 0.94 0.86 0.75 0.76 0.74 0.80 0.81 0.85 0.96 1.07 1.19 1.32 1.44 1.55 1.74 1.86 1.89 1.79 1.60 1.60 1.65 1.59 1.58 1.63 1.59 1.63 1.67 1.62 1.61 1.59
0.99 1.04 1.01 0.96 0.88 0.77 0.75 0.83 0.87 0.87 0.94 0.94 0.97 1.04 1.17 1.35 1.46 1.61 1.85 1.87 1.78 1.67 1.63 1.61 1.63 1.64 1.63 1.56 1.55 1.66 1.70 1.70 1.67
1.05 1.06 1.07 1.00 0.99 0.84 0.84 0.88 0.88 0.90 0.92 0.98 0.99 1.00 1.12 1.22 1.33 1.47 1.64 1.71 1.78 1.84 1.83 1.79 1.72 1.70 1.61 1.51 1.46 1.52 1.57 1.63 1.61
1.04 1.14 1.15 1.10 1.08 0.95 0.92 0.94 0.97 0.94 1.00 1.01 0.93 0.99 1.06 1.20 1.30 1.37 1.44 1.57 1.77 1.82 1.86 1.86 1.88 1.79 1.75 1.69 1.66 1.70 1.65 1.68 1.65
1.03 1.17 1.19 1.25 1.24 0.98 0.91 1.00 1.00 0.94 0.97 0.97 0.98 0.97 1.02 1.06 1.15 1.22 1.34 1.45 1.50 1.64 1.75 1.90 1.86 1.79 1.79 1.83 1.87 1.83 1.81 1.74 1.71
1.00 1.17 1.23 1.29 1.28 1.14 1.02 1.01 0.96 0.90 0.86 0.92 0.93 0.96 0.95 0.95 0.96 0.99 1.13 1.28 1.35 1.38 1.44 1.52 1.68 1.77 1.85 1.91 1.91 1.96 1.96 1.85 1.75
1.15 1.19 1.24 1.34 1.30 1.19 1.13 1.01 0.96 0.84 0.84 0.87 0.87 0.87 0.82 0.84 0.89 0.88 0.96 1.00 1.10 1.19 1.27 1.34 1.38 1.39 1.44 1.55 1.67 1.76 1.87 1.88 1.83
1.20 1.25 1.31 1.35 1.29 1.16 1.01 0.98 0.96 0.90 0.94 0.98 0.91 0.82 0.79 0.81 0.80 0.81 0.89 0.93 0.97 1.02 1.07 1.15 1.23 1.28 1.31 1.35 1.38 1.42 1.47 1.54 1.71
1.15 1.34 1.41 1.40 1.29 1.14 1.02 1.00 0.98 1.03 1.05 1.02 0.89 0.88 0.87 0.84 0.85 0.82 0.87 0.86 0.87 0.91 1.01 1.05 1.04 1.08 1.13 1.13 1.14 1.19 1.26 1.28 1.31
1.23 1.37 1.49 1.45 1.35 1.17 1.04 1.06 1.01 1.07 1.10 1.07 0.96 0.89 0.90 0.88 0.87 0.86 0.93 0.92 0.87 1.00 1.03 1.08 1.11 1.14 1.14 1.14 1.14 1.17 1.19 1.20 1.23
1.26 1.40 1.45 1.41 1.29 1.24 1.20 1.07 1.07 1.16 1.15 1.09 0.96 0.89 0.93 0.91 0.90 0.93 0.93 0.96 0.99 0.92 1.07 1.13 1.16 1.16 1.17 1.17 1.16 1.16 1.16 1.17 1.19